Date String (YYYY-MM-DD hh:mm:ss) UTC,Instrument flags,absolute air pressure of the measurement (hPa),sample flow rate (lpm),inlet stack bypass flow (lpm),air temperature of the measurement (°C),ambient temperature measured by the external sensor (°C),aerosol sample conditioner tube jacket temperature (°C),OPC LED temperature (°C),internal box temperature (°C),relative humidity of the measurement (%),span deviation,mass concentration of particles derived from Lorenz-Mie calculation of OPC scattering (μg/m³),mass concentration of particles derived from Lorenz-Mie calculation of OPC scattering (μg/m³),mass concentration of particles derived from Lorenz-Mie calculation of OPC scattering (μg/m³)
DateTimeUTC,F1_M11,P_M11,Q1_M11,Q2_M11,T1_M11,T2_M11,T3_M11,T4_M11,T5_M11,U1_M11,ZSPAN_M11,X2_M11,X0_M11,X1_M11
2023-08-19 03:00:00,SystemResetWarning,0830.3,5.00,000.00,027.7,023.6,000.0,035.9,029.1,26.4,0000.0,0002.10,0008.43,0001.59
2023-08-19 03:01:00,SystemResetWarning,0830.3,5.01,000.00,027.6,023.7,000.0,035.9,028.9,26.7,0000.0,0002.08,0008.27,0001.55
2023-08-19 03:02:00,SystemResetWarning,0830.3,5.01,000.00,027.6,024.1,000.0,035.9,028.9,27.1,0000.0,0002.06,0007.24,0001.53
2023-08-19 03:03:00,SystemResetWarning,0830.3,4.99,000.00,027.5,024.6,000.0,035.9,029.0,27.1,0000.0,0001.95,0006.62,0001.47
2023-08-19 03:04:00,SystemResetWarning,0830.4,5.00,000.00,027.6,025.0,000.0,035.9,029.2,27.2,0000.0,0001.79,0006.16,0001.37
2023-08-19 03:05:00,SystemResetWarning,0830.4,5.00,000.00,027.6,025.4,000.0,036.0,029.3,26.9,0000.0,0001.70,0005.20,0001.31
2023-08-19 03:06:00,SystemResetWarning,0830.4,5.00,000.00,027.6,025.7,000.0,036.0,029.4,26.9,0000.0,0001.63,0003.69,0001.29
2023-08-19 03:07:00,SystemResetWarning,0830.4,5.01,000.00,027.7,026.0,000.0,036.0,029.5,27.0,0000.0,0001.62,0003.63,0001.29
2023-08-19 03:08:00,SystemResetWarning,0830.4,5.00,000.00,027.7,026.3,000.0,036.1,029.6,27.1,0000.0,0001.59,0002.74,0001.26
2023-08-19 03:09:00,SystemResetWarning,0830.5,4.99,000.00,027.8,026.5,000.0,036.1,029.6,27.1,0000.0,0001.57,0002.27,0001.24
2023-08-19 03:10:00,SystemResetWarning,0830.5,5.00,000.00,027.8,026.4,000.0,036.1,029.6,27.1,0000.0,0001.56,0002.28,0001.23
2023-08-19 03:11:00,SystemResetWarning,0830.4,4.99,000.00,027.8,024.9,000.0,036.0,029.3,27.0,0000.0,0001.55,0002.25,0001.23
2023-08-19 03:12:00,SystemResetWarning,0830.5,5.00,000.00,027.7,023.7,000.0,035.9,029.1,27.0,0000.0,0001.52,0002.21,0001.22
2023-08-19 03:13:00,SystemResetWarning,0830.6,5.01,000.00,027.6,023.7,000.0,035.9,029.0,27.3,0000.0,0001.53,0002.25,0001.21
2023-08-19 03:14:00,SystemResetWarning,0830.6,5.01,000.00,027.5,024.0,000.0,035.9,028.9,27.5,0000.0,0001.54,0002.23,0001.21
2023-08-19 03:15:00,SystemResetWarning,0830.4,4.99,000.00,027.5,024.4,000.0,035.9,029.0,27.6,0000.0,0001.52,0002.21,0001.20
2023-08-19 03:16:00,SystemResetWarning,0830.5,5.00,000.00,027.5,024.9,000.0,036.0,029.2,27.2,0000.0,0001.51,0002.19,0001.19
2023-08-19 03:17:00,SystemResetWarning,0830.6,5.01,000.00,027.6,025.3,000.0,036.0,029.3,27.0,0000.0,0001.50,0002.18,0001.19
2023-08-19 03:18:00,SystemResetWarning,0830.6,5.00,000.00,027.6,025.7,000.0,036.0,029.4,27.2,0000.0,0001.48,0002.72,0001.18
2023-08-19 03:19:00,SystemResetWarning,0830.6,5.00,000.00,027.7,026.0,000.0,036.0,029.4,27.2,0000.0,0001.45,0002.66,0001.18
2023-08-19 03:20:00,SystemResetWarning,0830.6,5.00,000.00,027.7,026.2,000.0,036.0,029.5,26.9,0000.0,0001.45,0002.67,0001.17
2023-08-19 03:21:00,SystemResetWarning,0830.7,4.99,000.00,027.8,026.5,000.0,036.1,029.6,26.8,0000.0,0001.46,0002.71,0001.17
2023-08-19 03:22:00,SystemResetWarning,0830.6,5.00,000.00,027.8,026.7,000.0,036.1,029.7,26.9,0000.0,0001.47,0002.73,0001.18
2023-08-19 03:23:00,SystemResetWarning,0830.7,5.00,000.00,027.9,026.7,000.0,036.1,029.7,26.4,0000.0,0001.49,0002.72,0001.19
2023-08-19 03:24:00,SystemResetWarning,0830.6,4.98,000.00,027.9,025.5,000.0,036.1,029.5,26.3,0000.0,0001.48,0002.70,0001.19
2023-08-19 03:25:00,SystemResetWarning,0830.6,5.00,000.00,027.8,024.0,000.0,036.0,029.1,26.1,0000.0,0001.45,0002.59,0001.19
2023-08-19 03:26:00,SystemResetWarning,0830.6,5.00,000.00,027.7,023.6,000.0,035.9,028.9,26.2,0000.0,0001.45,0002.59,0001.20
2023-08-19 03:27:00,SystemResetWarning,0830.6,5.02,000.00,027.6,023.8,000.0,035.9,028.8,26.1,0000.0,0001.48,0002.66,0001.21
2023-08-19 03:28:00,SystemResetWarning,0830.7,5.00,000.00,027.5,024.3,000.0,035.9,028.9,26.7,0000.0,0001.51,0002.73,0001.21
2023-08-19 03:29:00,SystemResetWarning,0830.7,5.00,000.00,027.5,024.7,000.0,036.0,029.1,26.7,0000.0,0001.53,0002.31,0001.22
2023-08-19 03:30:00,SystemResetWarning,0830.7,5.00,000.00,027.6,025.1,000.0,036.0,029.2,26.8,0000.0,0001.55,0002.25,0001.23
2023-08-19 03:31:00,SystemResetWarning,0830.6,4.99,000.00,027.6,025.5,000.0,036.0,029.3,27.0,0000.0,0001.52,0002.13,0001.24
2023-08-19 03:32:00,SystemResetWarning,0830.7,5.00,000.00,027.7,025.9,000.0,036.0,029.4,26.9,0000.0,0001.51,0002.08,0001.25
2023-08-19 03:33:00,SystemResetWarning,0830.7,5.00,000.00,027.7,026.1,000.0,036.1,029.5,26.6,0000.0,0001.50,0002.22,0001.25
2023-08-19 03:34:00,SystemResetWarning,0830.8,5.00,000.00,027.7,026.4,000.0,036.1,029.6,26.5,0000.0,0001.49,0002.74,0001.24
2023-08-19 03:35:00,SystemResetWarning,0830.9,5.00,000.00,027.8,026.6,000.0,036.1,029.7,26.6,0000.0,0001.52,0002.80,0001.26
2023-08-19 03:36:00,SystemResetWarning,0830.9,5.00,000.00,027.9,026.6,000.0,036.2,029.7,26.5,0000.0,0001.54,0002.82,0001.27
2023-08-19 03:37:00,SystemResetWarning,0830.9,4.98,000.00,027.8,025.2,000.0,036.1,029.4,26.5,0000.0,0001.56,0002.86,0001.27
2023-08-19 03:38:00,SystemResetWarning,0831.0,5.01,000.00,027.7,023.8,000.0,036.0,029.1,26.6,0000.0,0001.57,0002.87,0001.28
2023-08-19 03:39:00,SystemResetWarning,0830.9,5.02,000.00,027.7,023.6,000.0,035.9,028.9,26.9,0000.0,0001.58,0002.91,0001.29
2023-08-19 03:40:00,SystemResetWarning,0830.9,5.00,000.00,027.6,023.9,000.0,035.9,028.9,27.2,0000.0,0001.60,0002.94,0001.30
2023-08-19 03:41:00,SystemResetWarning,0831.0,5.00,000.00,027.5,024.4,000.0,036.0,029.0,27.2,0000.0,0001.64,0003.06,0001.31
2023-08-19 03:42:00,SystemResetWarning,0830.9,5.01,000.00,027.6,024.8,000.0,036.0,029.2,27.8,0000.0,0001.68,0003.14,0001.32
2023-08-19 03:43:00,SystemResetWarning,0830.9,5.00,000.00,027.6,025.3,000.0,036.0,029.3,28.1,0000.0,0001.73,0003.25,0001.33
2023-08-19 03:44:00,SystemResetWarning,0830.9,5.00,000.00,027.6,025.6,000.0,036.0,029.4,27.4,0000.0,0001.78,0003.16,0001.34
2023-08-19 03:45:00,SystemResetWarning,0830.9,5.00,000.00,027.7,025.9,000.0,036.1,029.5,27.2,0000.0,0001.80,0003.43,0001.35
2023-08-19 03:46:00,SystemResetWarning,0830.9,5.00,000.00,027.7,026.2,000.0,036.1,029.6,26.7,0000.0,0001.77,0004.01,0001.35
2023-08-19 03:47:00,SystemResetWarning,0830.9,5.00,000.00,027.8,026.5,000.0,036.1,029.6,26.7,0000.0,0001.83,0004.20,0001.34
2023-08-19 03:48:00,SystemResetWarning,0831.0,5.00,000.00,027.8,026.7,000.0,036.1,029.7,26.5,0000.0,0001.87,0004.43,0001.35
2023-08-19 03:49:00,SystemResetWarning,0831.0,5.00,000.00,027.9,026.8,000.0,036.2,029.8,26.4,0000.0,0001.87,0005.85,0001.34
2023-08-19 03:50:00,SystemResetWarning,0830.9,4.99,000.00,027.9,025.8,000.0,036.1,029.6,26.7,0000.0,0001.90,0005.87,0001.35
2023-08-19 03:51:00,SystemResetWarning,0830.9,5.00,000.00,027.8,024.2,000.0,036.0,029.3,26.8,0000.0,0001.91,0005.94,0001.34
2023-08-19 03:52:00,SystemResetWarning,0830.9,5.00,000.00,027.7,023.7,000.0,035.9,029.1,27.0,0000.0,0001.90,0005.87,0001.35
2023-08-19 03:53:00,SystemResetWarning,0830.9,5.01,000.00,027.7,023.9,000.0,036.0,028.9,27.0,0000.0,0001.88,0005.87,0001.34
2023-08-19 03:54:00,SystemResetWarning,0831.0,5.00,000.00,027.6,024.3,000.0,036.0,029.0,27.1,0000.0,0001.86,0005.98,0001.32
2023-08-19 03:55:00,SystemResetWarning,0831.0,5.00,000.00,027.6,024.8,000.0,036.0,029.2,27.3,0000.0,0001.80,0006.02,0001.31
2023-08-19 03:56:00,SystemResetWarning,0831.0,4.99,000.00,027.6,025.2,000.0,036.0,029.3,27.4,0000.0,0001.77,0005.25,0001.30
2023-08-19 03:57:00,SystemResetWarning,0831.1,5.00,000.00,027.7,025.6,000.0,036.1,029.4,27.1,0000.0,0001.77,0004.59,0001.30
2023-08-19 03:58:00,SystemResetWarning,0831.1,5.00,000.00,027.7,025.9,000.0,036.1,029.5,26.8,0000.0,0001.73,0004.54,0001.29
2023-08-19 03:59:00,SystemResetWarning,0831.2,5.01,000.00,027.7,026.2,000.0,036.1,029.6,26.9,0000.0,0001.69,0004.36,0001.30
